Погода в Бердюжье

Россия / Тюменская область     55°48′17″N   68°18′42″E
темп.,
°C
ветер,
м/с
пор.,
м/с
влажн.,
%
обл.,
%
осадки,
мм/ч
давл.,
гПа
погр.,
м
12 апреля, пн
пн1223:000ююз4118667 0.0 1036173
02:000юз5128091 0.0 1035193
05:000юз4118092 0.0 1035190
08:00+2зюз41184100 0.0 1034239
11:00+6з4784100 0.0 1034279
14:00+6з3793100 0.1 1034160
17:00+4зсз3798100 0.4 1035121
20:00+4сз3394100 0.0 103527
13 апреля, вт
вт1323:00+4ссз3385100 0.0 103734
02:00+2св33893 0.0 103823
05:00+2ссв12800 0.0 104010
08:00+4сз23820 0.0 1041104
11:00+7зсз33620 0.0 1041462
14:00+10зсз34520 0.0 1040885
17:00+10зсз35580 0.0 1039472
20:00+6з33690 0.0 103921
14 апреля, ср
ср1423:00+5зюз337295 0.0 103833
02:00+4зюз368055 0.0 103783
05:00+3юз498483 0.0 1036139
08:00+5зюз51185100 0.0 1035314
11:00+10зюз7106493 0.0 1033529
14:00+13зюз795514 0.0 1031781
17:00+14з5962100 0.0 1029710
20:00+10зюз497712 0.0 1028142
15 апреля, чт
чт1523:00+9зюз47855 0.0 1028115
02:00+8зюз37895 0.0 102793
05:00+7зюз35908 0.0 102682
08:00+10зюз478355 0.0 1025199
11:00+15зюз576738 0.0 1024564
14:00+17з575932 0.0 10221185
17:00+18з575821 0.0 10211328
20:00+13зюз46745 0.0 102077
16 апреля, пт
пт1623:00+11зюз36805 0.0 101982
02:00+9зюз33825 0.0 101838
05:00+8юз33815 0.0 101739
08:00+11юз35665 0.0 1016170
11:00+15юз45475 0.0 1014574
14:00+17юз453955 0.0 10121154
17:00+17юз443848 0.0 10101344
20:00+13юз3354100 0.0 100920